When you browse on this site, cookies collect data to enhance your experience and personalize the content and advertising you see.
Visit our Privacy Policy to learn more. By continuing to use the site, you agree to this use of cookies and data.
  • In Lithuania
  • List of Countries
  • For 7 days
  • Water Temperature
  • Satellite Maps
  • Weather Map
  • Weather Widgets
  • user-avatar
    Login

    Hourly Weather Hodunovo

    Today, 26 May, Sunday

    Time Temperature Precipitation Wind Pressure Humidity
    00:00 +10°C° 0 mm 2 mps 731 mmHg 97%
    01:00 +9°C° 0 mm 2 mps 731 mmHg 97%
    02:00 +9°C° 0 mm 2 mps 731 mmHg 97%
    03:00 +9°C° 0 mm 2 mps 731 mmHg 96%
    04:00 +9°C° 0 mm 2 mps 732 mmHg 94%
    05:00 +9°C° 0 mm 2 mps 732 mmHg 93%
    06:00 +9°C° 0 mm 3 mps 732 mmHg 88%
    07:00 +10°C° 0 mm 3 mps 732 mmHg 83%
    08:00 +11°C° 0 mm 3 mps 732 mmHg 77%
    09:00 +12°C° 0 mm 3 mps 732 mmHg 73%
    10:00 +13°C° 0 mm 3 mps 732 mmHg 68%
    11:00 +14°C° 0 mm 3 mps 732 mmHg 63%
    12:00 +16°C° 0 mm 3 mps 732 mmHg 58%
    13:00 +17°C° 0 mm 3 mps 732 mmHg 53%
    14:00 +18°C° 0 mm 3 mps 732 mmHg 48%
    15:00 +18°C° 0 mm 3 mps 732 mmHg 49%
    16:00 +18°C° 0 mm 3 mps 731 mmHg 49%
    17:00 +18°C° 0 mm 3 mps 731 mmHg 49%
    18:00 +16°C° 0 mm 2 mps 731 mmHg 59%
    19:00 +15°C° 0 mm 2 mps 731 mmHg 69%
    20:00 +13°C° 0 mm 2 mps 730 mmHg 78%
    21:00 +13°C° 0.1 mm 2 mps 731 mmHg 83%
    22:00 +11°C° 0.1 mm 3 mps 731 mmHg 87%
    23:00 +10°C° 0.1 mm 3 mps 731 mmHg 91%

    Tomorrow, 27 May, Monday

    Time Temperature Precipitation Wind Pressure Humidity
    00:00 +10°C° 0.1 mm 3 mps 731 mmHg 91%
    01:00 +9°C° 0.1 mm 3 mps 731 mmHg 90%
    02:00 +9°C° 0.1 mm 3 mps 731 mmHg 89%
    03:00 +8°C° 0 mm 4 mps 731 mmHg 89%
    04:00 +8°C° 0 mm 4 mps 731 mmHg 88%
    05:00 +7°C° 0 mm 5 mps 731 mmHg 87%
    06:00 +8°C° 0.1 mm 5 mps 732 mmHg 85%
    07:00 +10°C° 0.1 mm 4 mps 732 mmHg 83%
    08:00 +10°C° 0.1 mm 4 mps 732 mmHg 81%
    09:00 +12°C° 0 mm 5 mps 732 mmHg 71%
    10:00 +14°C° 0 mm 5 mps 733 mmHg 61%
    11:00 +16°C° 0 mm 6 mps 733 mmHg 52%
    12:00 +16°C° 0 mm 6 mps 733 mmHg 55%
    13:00 +16°C° 0 mm 5 mps 733 mmHg 58%
    14:00 +16°C° 0 mm 5 mps 734 mmHg 61%
    15:00 +15°C° 0.1 mm 5 mps 734 mmHg 67%
    16:00 +14°C° 0.1 mm 5 mps 733 mmHg 74%
    17:00 +14°C° 0.1 mm 4 mps 733 mmHg 80%
    18:00 +13°C° 0.5 mm 3 mps 733 mmHg 86%
    19:00 +13°C° 0.5 mm 2 mps 734 mmHg 91%
    20:00 +13°C° 0.5 mm 1 mps 734 mmHg 97%
    21:00 +13°C° 0.3 mm 2 mps 734 mmHg 97%
    22:00 +13°C° 0.3 mm 2 mps 734 mmHg 97%
    23:00 +14°C° 0.3 mm 2 mps 734 mmHg 98%

    Day after tomorrow, 28 May, Tuesday

    Time Temperature Precipitation Wind Pressure Humidity
    00:00 +14°C° 0 mm 2 mps 734 mmHg 98%
    01:00 +13°C° 0 mm 2 mps 734 mmHg 97%
    02:00 +13°C° 0 mm 2 mps 735 mmHg 97%
    03:00 +13°C° 0 mm 2 mps 735 mmHg 97%
    04:00 +14°C° 0 mm 2 mps 735 mmHg 97%
    05:00 +14°C° 0 mm 2 mps 736 mmHg 97%
    06:00 +15°C° 0 mm 2 mps 736 mmHg 94%
    07:00 +16°C° 0 mm 2 mps 736 mmHg 91%
    08:00 +17°C° 0 mm 2 mps 737 mmHg 88%
    09:00 +18°C° 0.2 mm 3 mps 737 mmHg 84%
    10:00 +19°C° 0.2 mm 3 mps 737 mmHg 80%
    11:00 +20°C° 0.2 mm 3 mps 737 mmHg 75%
    12:00 +21°C° 0.3 mm 3 mps 737 mmHg 72%
    13:00 +22°C° 0.3 mm 3 mps 737 mmHg 68%
    14:00 +24°C° 0.3 mm 3 mps 737 mmHg 64%
    15:00 +23°C° 0.4 mm 2 mps 737 mmHg 68%
    16:00 +23°C° 0.4 mm 2 mps 737 mmHg 73%
    17:00 +23°C° 0.4 mm 2 mps 737 mmHg 77%
    18:00 +21°C° 0.6 mm 2 mps 736 mmHg 83%
    19:00 +19°C° 0.6 mm 2 mps 736 mmHg 88%
    20:00 +18°C° 0.6 mm 2 mps 736 mmHg 93%
    21:00 +18°C° 1.1 mm 2 mps 736 mmHg 94%
    22:00 +18°C° 1.1 mm 3 mps 736 mmHg 94%
    23:00 +18°C° 1.1 mm 4 mps 736 mmHg 95%

    29 May, Wednesday

    Time Temperature Precipitation Wind Pressure Humidity
    00:00 +18°C° 0.4 mm 4 mps 736 mmHg 95%
    01:00 +18°C° 0.4 mm 4 mps 736 mmHg 95%
    02:00 +17°C° 0.4 mm 4 mps 736 mmHg 95%
    03:00 +17°C° 0.4 mm 4 mps 736 mmHg 95%
    04:00 +17°C° 0.4 mm 4 mps 736 mmHg 95%
    05:00 +17°C° 0.4 mm 4 mps 736 mmHg 95%
    06:00 +19°C° 0.1 mm 4 mps 737 mmHg 89%
    07:00 +20°C° 0.1 mm 4 mps 737 mmHg 84%
    08:00 +22°C° 0.1 mm 4 mps 737 mmHg 78%
    09:00 +23°C° 0 mm 5 mps 737 mmHg 68%
    10:00 +26°C° 0 mm 5 mps 737 mmHg 58%
    11:00 +27°C° 0 mm 6 mps 737 mmHg 48%
    12:00 +28°C° 0 mm 6 mps 737 mmHg 46%
    13:00 +28°C° 0 mm 6 mps 737 mmHg 45%
    14:00 +29°C° 0 mm 6 mps 736 mmHg 43%
    15:00 +28°C° 0 mm 6 mps 736 mmHg 46%
    16:00 +28°C° 0 mm 5 mps 736 mmHg 49%
    17:00 +27°C° 0 mm 5 mps 736 mmHg 51%
    18:00 +26°C° 0 mm 5 mps 736 mmHg 57%
    19:00 +23°C° 0 mm 5 mps 736 mmHg 63%
    20:00 +22°C° 0 mm 4 mps 737 mmHg 68%
    21:00 +20°C° 0.1 mm 4 mps 737 mmHg 72%
    22:00 +19°C° 0.1 mm 4 mps 737 mmHg 76%
    23:00 +18°C° 0.1 mm 3 mps 737 mmHg 80%

    30 May, Thursday

    Time Temperature Precipitation Wind Pressure Humidity
    00:00 +18°C° 0 mm 3 mps 737 mmHg 83%
    01:00 +18°C° 0 mm 3 mps 737 mmHg 85%
    02:00 +18°C° 0 mm 3 mps 737 mmHg 88%
    03:00 +18°C° 0 mm 4 mps 737 mmHg 88%
    04:00 +19°C° 0 mm 4 mps 737 mmHg 87%
    05:00 +19°C° 0 mm 4 mps 737 mmHg 87%
    06:00 +20°C° 0 mm 4 mps 738 mmHg 81%
    07:00 +22°C° 0 mm 4 mps 738 mmHg 74%
    08:00 +23°C° 0 mm 5 mps 738 mmHg 68%
    09:00 +23°C° 1 mm 5 mps 738 mmHg 71%
    10:00 +23°C° 1 mm 5 mps 738 mmHg 74%
    11:00 +23°C° 1 mm 5 mps 737 mmHg 76%
    12:00 +23°C° 0.7 mm 4 mps 737 mmHg 75%
    13:00 +23°C° 0.7 mm 4 mps 737 mmHg 74%
    14:00 +25°C° 0.7 mm 3 mps 737 mmHg 73%
    15:00 +24°C° 1.1 mm 3 mps 737 mmHg 77%
    16:00 +22°C° 1.1 mm 3 mps 737 mmHg 81%
    17:00 +21°C° 1.1 mm 3 mps 737 mmHg 85%
    18:00 +20°C° 0.7 mm 3 mps 737 mmHg 89%
    19:00 +18°C° 0.7 mm 3 mps 738 mmHg 93%
    20:00 +17°C° 0.7 mm 2 mps 738 mmHg 97%
    21:00 +16°C° 0.4 mm 3 mps 738 mmHg 96%
    22:00 +13°C° 0.4 mm 3 mps 739 mmHg 96%
    23:00 +12°C° 0.4 mm 4 mps 739 mmHg 95%

    31 May, Friday

    Time Temperature Precipitation Wind Pressure Humidity
    00:00 +11°C° 0.1 mm 3 mps 740 mmHg 95%
    01:00 +10°C° 0.1 mm 3 mps 740 mmHg 94%
    02:00 +9°C° 0.1 mm 2 mps 740 mmHg 93%
    03:00 +9°C° 0 mm 2 mps 741 mmHg 91%
    04:00 +9°C° 0 mm 2 mps 741 mmHg 89%
    05:00 +9°C° 0 mm 2 mps 742 mmHg 88%
    06:00 +10°C° 0 mm 2 mps 742 mmHg 76%
    07:00 +13°C° 0 mm 2 mps 742 mmHg 64%
    08:00 +14°C° 0 mm 2 mps 742 mmHg 51%
    09:00 +16°C° 0 mm 2 mps 742 mmHg 46%
    10:00 +19°C° 0 mm 1 mps 742 mmHg 41%
    11:00 +20°C° 0 mm 1 mps 741 mmHg 35%
    12:00 +21°C° 0 mm 1 mps 741 mmHg 35%
    13:00 +22°C° 0 mm 1 mps 741 mmHg 35%
    14:00 +22°C° 0 mm 1 mps 741 mmHg 35%
    15:00 +22°C° 0 mm 1 mps 740 mmHg 38%
    16:00 +21°C° 0 mm 2 mps 740 mmHg 41%
    17:00 +20°C° 0 mm 2 mps 740 mmHg 44%
    18:00 +19°C° 0 mm 2 mps 739 mmHg 53%
    19:00 +17°C° 0 mm 2 mps 739 mmHg 63%
    20:00 +15°C° 0 mm 1 mps 739 mmHg 73%
    21:00 +14°C° 0 mm 2 mps 739 mmHg 77%
    22:00 +13°C° 0 mm 2 mps 739 mmHg 80%
    23:00 +13°C° 0 mm 2 mps 739 mmHg 84%
    Show more